Zenith Leader — 2ACU6 — position and weather

sailwx.info

Track history (hours):
 
Tides and Currents Weather Stations Pressure Air Temp Water Temp Dewpoint Dewpoint Depression Visibility Wind Speed Wind Dir Waves Ship Positions

Zenith Leader

Last reported at 2014-Sep-03 06:19 UTC. Time now 2014-Sep-03 07:20 UTC.
Position N 36°26' W 002°04'.

Length 199 m; draft 8.4 m.

Type: Cargo ship. MMSI: 235058697.

Date/timePositionNaut miles runAvg speedWind from/ knotsBaromVisibWave heightAir tempDewpointWater temp
2014-Sep-03 06:19N 36°26' W 002°04'1315.7
2014-Sep-03 05:31N 36°21' W 002°18'14317.4
2014-Sep-02 21:18N 35°59' W 005°13'3217.9
2014-Sep-02 19:32N 35°54' W 005°52'1716.9
2014-Sep-02 18:32N 35°55' W 006°13'1716.6
2014-Sep-02 17:31N 35°57' W 006°33'1616.3
2014-Sep-02 16:33N 36°02' W 006°52'1716.7
2014-Sep-02 15:32N 36°05' W 007°12'1616.6
2014-Sep-02 14:33N 36°10' W 007°32'1716.6
2014-Sep-02 13:33N 36°14' W 007°52'1716.3
2014-Sep-02 12:29N 36°19' W 008°13'1516.1
2014-Sep-02 11:33N 36°23' W 008°30'1616.2
2014-Sep-02 10:33N 36°27' W 008°50'1816.7
2014-Sep-02 09:30N 36°32' W 009°11'1617.0
2014-Sep-02 08:32N 36°42' W 009°27'1715.8
2014-Sep-02 07:28N 36°56' W 009°37'1516.2
2014-Sep-02 06:33N 37°11' W 009°41'1616.6
2014-Sep-02 05:33N 37°27' W 009°44'1616.3
2014-Sep-02 04:34N 37°43' W 009°49'2216.5
2014-Sep-02 03:13N 38°05' W 009°55'1116.3
2014-Sep-02 02:33N 38°15' W 009°58'3316.3
2014-Sep-02 00:30N 38°48' W 010°06'30816.1
2014-Sep-01 05:20N 43°56' W 009°40'1315.6
2014-Sep-01 04:31N 44°07' W 009°31'1515.7
2014-Sep-01 03:32N 44°20' W 009°19'26116.2
2014-Aug-31 11:25N 48°11' W 006°23'1517.3
2014-Aug-31 10:32N 48°25' W 006°13'2219.0
2014-Aug-31 09:23N 48°44' W 005°58'3015.5
2014-Aug-31 07:28N 49°03' W 005°23'17015.0
2014-Aug-30 20:07N 50°26' W 001°34'915.2
2014-Aug-30 19:33N 50°29' W 001°21'1515.5
2014-Aug-30 18:33N 50°37' W 001°00'9 9.3
2014-Aug-30 17:33N 50°45' W 001°07'10 9.5
2014-Aug-30 16:33N 50°50' W 001°19'4 4.0
2014-Aug-30 15:32N 50°53' W 001°24'0 0.0
2014-Aug-30 14:32N 50°53' W 001°24'0 0.0
2014-Aug-30 13:32N 50°53' W 001°24'0 0.0
2014-Aug-30 12:32N 50°53' W 001°24'0 0.0
2014-Aug-30 11:32N 50°53' W 001°24'0 0.0
2014-Aug-30 10:32N 50°53' W 001°24'0 0.0
2014-Aug-30 09:32N 50°53' W 001°24'1 0.8
2014-Aug-30 08:34N 50°53' W 001°23'7 7.1
2014-Aug-30 07:34N 50°47' W 001°17'1211.6
2014-Aug-30 06:34N 50°43' W 000°60'7 6.6
2014-Aug-30 05:33N 50°39' W 000°52'1110.6
2014-Aug-30 04:33N 50°36' W 000°36'1615.9
2014-Aug-30 03:33N 50°33' W 000°11'1815.2
2014-Aug-30 02:24N 50°32' E 000°16'1214.7
2014-Aug-30 01:33N 50°36' E 000°35'1413.9
2014-Aug-30 00:33N 50°45' E 000°52'1413.8
2014-Aug-29 23:33N 50°54' E 001°09'1515.3
2014-Aug-29 22:33N 51°04' E 001°26'1717.1
2014-Aug-29 21:33N 51°16' E 001°46'1716.6
2014-Aug-29 20:34N 51°29' E 002°02'1515.5
2014-Aug-29 19:34N 51°41' E 002°19'4814.0
2014-Aug-29 16:08N 52°18' E 003°08'2213.8
2014-Aug-29 14:32N 52°36' E 003°28'1515.3
2014-Aug-29 13:33N 52°48' E 003°42'1615.7
2014-Aug-29 12:34N 52°60' E 004°01'1716.6
2014-Aug-29 11:33N 53°09' E 004°23'1615.5
2014-Aug-29 10:32N 53°24' E 004°34'1413.9
2014-Aug-29 09:34N 53°32' E 004°51'1413.9
2014-Aug-29 08:33N 53°37' E 005°14'1413.6
2014-Aug-29 07:31N 53°41' E 005°36'1814.8
2014-Aug-29 06:20N 53°47' E 006°04'1416.0
2014-Aug-29 05:29N 53°51' E 006°27'3516.4
2014-Aug-29 03:22N 53°58' E 007°24'1011.5
2014-Aug-29 02:29N 53°57' E 007°41'1010.3
2014-Aug-29 01:31N 53°52' E 007°55'1213.0
2014-Aug-29 00:33N 53°45' E 008°13'1312.8
2014-Aug-28 23:33N 53°37' E 008°29'4 3.6
2014-Aug-28 22:33N 53°34' E 008°33'1 0.5
2014-Aug-28 21:32N 53°35' E 008°33'0 0.0
2014-Aug-28 20:32N 53°35' E 008°33'0 0.0
2014-Aug-28 19:32N 53°35' E 008°33'0 0.0
2014-Aug-28 18:32N 53°35' E 008°33'0 0.0
2014-Aug-28 17:32N 53°35' E 008°33'0 0.0
2014-Aug-28 16:32N 53°35' E 008°33'0 0.0
2014-Aug-28 15:26N 53°35' E 008°33'0 0.0
2014-Aug-28 14:32N 53°35' E 008°33'0 0.0
2014-Aug-28 13:32N 53°35' E 008°33'0 0.0
2014-Aug-28 12:32N 53°35' E 008°33'0 0.0
2014-Aug-28 11:29N 53°35' E 008°33'0 0.0
2014-Aug-28 10:32N 53°35' E 008°33'0 0.0
2014-Aug-28 09:32N 53°35' E 008°33'0 0.0
2014-Aug-28 08:29N 53°35' E 008°33'0 0.0
2014-Aug-28 07:33N 53°35' E 008°33'0 0.0
2014-Aug-28 06:32N 53°35' E 008°33'0 0.0
2014-Aug-28 05:32N 53°35' E 008°33'0 0.0
2014-Aug-28 04:32N 53°35' E 008°33'1 0.6
2014-Aug-28 03:34N 53°34' E 008°33'7 7.3
2014-Aug-28 02:34N 53°39' E 008°24'1414.1
2014-Aug-28 01:33N 53°49' E 008°07'1211.9
2014-Aug-28 00:33N 53°53' E 007°48'2 1.4
2014-Aug-27 23:09N 53°55' E 007°47'0 0.0
2014-Aug-27 21:30N 53°55' E 007°47'0 0.0
2014-Aug-27 16:24N 53°55' E 007°47'0 0.0
2014-Aug-27 15:33N 53°55' E 007°47'0 0.0
2014-Aug-27 09:27N 53°55' E 007°47'0 0.0
2014-Aug-27 08:24N 53°55' E 007°47'0 0.0
2014-Aug-27 04:30N 53°55' E 007°47'0 0.0
2014-Aug-27 02:30N 53°55' E 007°47'0 0.0
2014-Aug-27 01:24N 53°55' E 007°47'0 0.0
2014-Aug-26 04:03N 53°55' E 007°47'0 0.0
2014-Aug-26 03:24N 53°55' E 007°47'0 0.0
2014-Aug-26 02:27N 53°55' E 007°47'0 0.0
2014-Aug-26 01:30N 53°55' E 007°47'0 0.0
2014-Aug-26 00:21N 53°55' E 007°47'0 0.1
2014-Aug-25 23:24N 53°55' E 007°47'0 0.0
2014-Aug-25 22:03N 53°55' E 007°47'0 0.0
2014-Aug-25 21:30N 53°55' E 007°47'0 0.0
2014-Aug-25 20:27N 53°55' E 007°47'0 0.0
2014-Aug-25 18:30N 53°55' E 007°47'0 0.0
2014-Aug-25 17:27N 53°55' E 007°47'0 0.0
2014-Aug-25 15:27N 53°55' E 007°47'0 0.0
2014-Aug-25 14:18N 53°55' E 007°47'0 0.0
2014-Aug-25 12:33N 53°55' E 007°47'0 0.0
2014-Aug-25 11:30N 53°55' E 007°47'0 0.0
2014-Aug-25 10:27N 53°55' E 007°47'0 0.0
2014-Aug-25 09:33N 53°55' E 007°47'0 0.0
2014-Aug-25 08:33N 53°55' E 007°47'0 0.0
2014-Aug-25 07:33N 53°55' E 007°47'0 0.0
2014-Aug-25 06:18N 53°55' E 007°47'0 0.0
2014-Aug-25 05:33N 53°55' E 007°47'0 0.0
2014-Aug-25 04:24N 53°55' E 007°47'0 0.1
2014-Aug-25 03:30N 53°55' E 007°47'0 0.1
2014-Aug-25 02:27N 53°55' E 007°47'0 0.0
2014-Aug-25 00:27N 53°55' E 007°47'0 0.1
2014-Aug-24 23:33N 53°55' E 007°47'0 0.1
2014-Aug-24 22:30N 53°55' E 007°47'0 0.0
2014-Aug-24 21:24N 53°55' E 007°47'0 0.0
2014-Aug-24 20:33N 53°55' E 007°47'0 0.0
2014-Aug-24 19:27N 53°55' E 007°47'0 0.0
2014-Aug-24 18:24N 53°55' E 007°47'0 0.0
2014-Aug-24 17:33N 53°55' E 007°47'0 0.0
2014-Aug-24 14:30N 53°55' E 007°47'0 0.1
2014-Aug-24 13:24N 53°55' E 007°47'0 0.1
2014-Aug-24 12:30N 53°55' E 007°47'0 0.1
2014-Aug-24 11:30N 53°55' E 007°47'0 0.1
2014-Aug-24 10:33N 53°55' E 007°47'0 0.0
2014-Aug-24 09:30N 53°55' E 007°47'0 0.1
2014-Aug-24 08:33N 53°55' E 007°47'0 0.0
2014-Aug-24 07:30N 53°55' E 007°47'0 0.0
2014-Aug-24 06:30N 53°55' E 007°47'  
Track history (hours):
 
Tides and Currents Weather Stations Pressure Air Temp Water Temp Dewpoint Dewpoint Depression Visibility Wind Speed Wind Dir Waves Ship Positions

Zenith Leader

Last reported at 2014-Sep-03 06:19 UTC. Time now 2014-Sep-03 07:20 UTC.
Position N 36°26' W 002°04'.

Length 199 m; draft 8.4 m.

Type: Cargo ship. MMSI: 235058697.

Date/timePositionNaut miles runAvg speedWind from/ knotsBaromVisibWave heightAir tempDewpointWater temp
2014-Sep-03 06:19N 36°26' W 002°04'1315.7
2014-Sep-03 05:31N 36°21' W 002°18'14317.4
2014-Sep-02 21:18N 35°59' W 005°13'3217.9
2014-Sep-02 19:32N 35°54' W 005°52'1716.9
2014-Sep-02 18:32N 35°55' W 006°13'1716.6
2014-Sep-02 17:31N 35°57' W 006°33'1616.3
2014-Sep-02 16:33N 36°02' W 006°52'1716.7
2014-Sep-02 15:32N 36°05' W 007°12'1616.6
2014-Sep-02 14:33N 36°10' W 007°32'1716.6
2014-Sep-02 13:33N 36°14' W 007°52'1716.3
2014-Sep-02 12:29N 36°19' W 008°13'1516.1
2014-Sep-02 11:33N 36°23' W 008°30'1616.2
2014-Sep-02 10:33N 36°27' W 008°50'1816.7
2014-Sep-02 09:30N 36°32' W 009°11'1617.0
2014-Sep-02 08:32N 36°42' W 009°27'1715.8
2014-Sep-02 07:28N 36°56' W 009°37'1516.2
2014-Sep-02 06:33N 37°11' W 009°41'1616.6
2014-Sep-02 05:33N 37°27' W 009°44'1616.3
2014-Sep-02 04:34N 37°43' W 009°49'2216.5
2014-Sep-02 03:13N 38°05' W 009°55'1116.3
2014-Sep-02 02:33N 38°15' W 009°58'3316.3
2014-Sep-02 00:30N 38°48' W 010°06'30816.1
2014-Sep-01 05:20N 43°56' W 009°40'1315.6
2014-Sep-01 04:31N 44°07' W 009°31'1515.7
2014-Sep-01 03:32N 44°20' W 009°19'26116.2
2014-Aug-31 11:25N 48°11' W 006°23'1517.3
2014-Aug-31 10:32N 48°25' W 006°13'2219.0
2014-Aug-31 09:23N 48°44' W 005°58'3015.5
2014-Aug-31 07:28N 49°03' W 005°23'17015.0
2014-Aug-30 20:07N 50°26' W 001°34'915.2
2014-Aug-30 19:33N 50°29' W 001°21'1515.5
2014-Aug-30 18:33N 50°37' W 001°00'9 9.3
2014-Aug-30 17:33N 50°45' W 001°07'10 9.5
2014-Aug-30 16:33N 50°50' W 001°19'4 4.0
2014-Aug-30 15:32N 50°53' W 001°24'0 0.0
2014-Aug-30 14:32N 50°53' W 001°24'0 0.0
2014-Aug-30 13:32N 50°53' W 001°24'0 0.0
2014-Aug-30 12:32N 50°53' W 001°24'0 0.0
2014-Aug-30 11:32N 50°53' W 001°24'0 0.0
2014-Aug-30 10:32N 50°53' W 001°24'0 0.0
2014-Aug-30 09:32N 50°53' W 001°24'1 0.8
2014-Aug-30 08:34N 50°53' W 001°23'7 7.1
2014-Aug-30 07:34N 50°47' W 001°17'1211.6
2014-Aug-30 06:34N 50°43' W 000°60'7 6.6
2014-Aug-30 05:33N 50°39' W 000°52'1110.6
2014-Aug-30 04:33N 50°36' W 000°36'1615.9
2014-Aug-30 03:33N 50°33' W 000°11'1815.2
2014-Aug-30 02:24N 50°32' E 000°16'1214.7
2014-Aug-30 01:33N 50°36' E 000°35'1413.9
2014-Aug-30 00:33N 50°45' E 000°52'1413.8
2014-Aug-29 23:33N 50°54' E 001°09'1515.3
2014-Aug-29 22:33N 51°04' E 001°26'1717.1
2014-Aug-29 21:33N 51°16' E 001°46'1716.6
2014-Aug-29 20:34N 51°29' E 002°02'1515.5
2014-Aug-29 19:34N 51°41' E 002°19'4814.0
2014-Aug-29 16:08N 52°18' E 003°08'2213.8
2014-Aug-29 14:32N 52°36' E 003°28'1515.3
2014-Aug-29 13:33N 52°48' E 003°42'1615.7
2014-Aug-29 12:34N 52°60' E 004°01'1716.6
2014-Aug-29 11:33N 53°09' E 004°23'1615.5
2014-Aug-29 10:32N 53°24' E 004°34'1413.9
2014-Aug-29 09:34N 53°32' E 004°51'1413.9
2014-Aug-29 08:33N 53°37' E 005°14'1413.6
2014-Aug-29 07:31N 53°41' E 005°36'1814.8
2014-Aug-29 06:20N 53°47' E 006°04'1416.0
2014-Aug-29 05:29N 53°51' E 006°27'3516.4
2014-Aug-29 03:22N 53°58' E 007°24'1011.5
2014-Aug-29 02:29N 53°57' E 007°41'1010.3
2014-Aug-29 01:31N 53°52' E 007°55'1213.0
2014-Aug-29 00:33N 53°45' E 008°13'1312.8
2014-Aug-28 23:33N 53°37' E 008°29'4 3.6
2014-Aug-28 22:33N 53°34' E 008°33'1 0.5
2014-Aug-28 21:32N 53°35' E 008°33'0 0.0
2014-Aug-28 20:32N 53°35' E 008°33'0 0.0
2014-Aug-28 19:32N 53°35' E 008°33'0 0.0
2014-Aug-28 18:32N 53°35' E 008°33'0 0.0
2014-Aug-28 17:32N 53°35' E 008°33'0 0.0
2014-Aug-28 16:32N 53°35' E 008°33'0 0.0
2014-Aug-28 15:26N 53°35' E 008°33'0 0.0
2014-Aug-28 14:32N 53°35' E 008°33'0 0.0
2014-Aug-28 13:32N 53°35' E 008°33'0 0.0
2014-Aug-28 12:32N 53°35' E 008°33'0 0.0
2014-Aug-28 11:29N 53°35' E 008°33'0 0.0
2014-Aug-28 10:32N 53°35' E 008°33'0 0.0
2014-Aug-28 09:32N 53°35' E 008°33'0 0.0
2014-Aug-28 08:29N 53°35' E 008°33'0 0.0
2014-Aug-28 07:33N 53°35' E 008°33'0 0.0
2014-Aug-28 06:32N 53°35' E 008°33'0 0.0
2014-Aug-28 05:32N 53°35' E 008°33'0 0.0
2014-Aug-28 04:32N 53°35' E 008°33'1 0.6
2014-Aug-28 03:34N 53°34' E 008°33'7 7.3
2014-Aug-28 02:34N 53°39' E 008°24'1414.1
2014-Aug-28 01:33N 53°49' E 008°07'1211.9
2014-Aug-28 00:33N 53°53' E 007°48'2 1.4
2014-Aug-27 23:09N 53°55' E 007°47'0 0.0
2014-Aug-27 21:30N 53°55' E 007°47'0 0.0
2014-Aug-27 16:24N 53°55' E 007°47'0 0.0
2014-Aug-27 15:33N 53°55' E 007°47'0 0.0
2014-Aug-27 09:27N 53°55' E 007°47'0 0.0
2014-Aug-27 08:24N 53°55' E 007°47'0 0.0
2014-Aug-27 04:30N 53°55' E 007°47'0 0.0
2014-Aug-27 02:30N 53°55' E 007°47'0 0.0
2014-Aug-27 01:24N 53°55' E 007°47'0 0.0
2014-Aug-26 04:03N 53°55' E 007°47'0 0.0
2014-Aug-26 03:24N 53°55' E 007°47'0 0.0
2014-Aug-26 02:27N 53°55' E 007°47'0 0.0
2014-Aug-26 01:30N 53°55' E 007°47'0 0.0
2014-Aug-26 00:21N 53°55' E 007°47'0 0.1
2014-Aug-25 23:24N 53°55' E 007°47'0 0.0
2014-Aug-25 22:03N 53°55' E 007°47'0 0.0
2014-Aug-25 21:30N 53°55' E 007°47'0 0.0
2014-Aug-25 20:27N 53°55' E 007°47'0 0.0
2014-Aug-25 18:30N 53°55' E 007°47'0 0.0
2014-Aug-25 17:27N 53°55' E 007°47'0 0.0
2014-Aug-25 15:27N 53°55' E 007°47'0 0.0
2014-Aug-25 14:18N 53°55' E 007°47'0 0.0
2014-Aug-25 12:33N 53°55' E 007°47'0 0.0
2014-Aug-25 11:30N 53°55' E 007°47'0 0.0
2014-Aug-25 10:27N 53°55' E 007°47'0 0.0
2014-Aug-25 09:33N 53°55' E 007°47'0 0.0
2014-Aug-25 08:33N 53°55' E 007°47'0 0.0
2014-Aug-25 07:33N 53°55' E 007°47'0 0.0
2014-Aug-25 06:18N 53°55' E 007°47'0 0.0
2014-Aug-25 05:33N 53°55' E 007°47'0 0.0
2014-Aug-25 04:24N 53°55' E 007°47'0 0.1
2014-Aug-25 03:30N 53°55' E 007°47'0 0.1
2014-Aug-25 02:27N 53°55' E 007°47'0 0.0
2014-Aug-25 00:27N 53°55' E 007°47'0 0.1
2014-Aug-24 23:33N 53°55' E 007°47'0 0.1
2014-Aug-24 22:30N 53°55' E 007°47'0 0.0
2014-Aug-24 21:24N 53°55' E 007°47'0 0.0
2014-Aug-24 20:33N 53°55' E 007°47'0 0.0
2014-Aug-24 19:27N 53°55' E 007°47'0 0.0
2014-Aug-24 18:24N 53°55' E 007°47'0 0.0
2014-Aug-24 17:33N 53°55' E 007°47'0 0.0
2014-Aug-24 14:30N 53°55' E 007°47'0 0.1
2014-Aug-24 13:24N 53°55' E 007°47'0 0.1
2014-Aug-24 12:30N 53°55' E 007°47'0 0.1
2014-Aug-24 11:30N 53°55' E 007°47'0 0.1
2014-Aug-24 10:33N 53°55' E 007°47'0 0.0
2014-Aug-24 09:30N 53°55' E 007°47'0 0.1
2014-Aug-24 08:33N 53°55' E 007°47'0 0.0
2014-Aug-24 07:30N 53°55' E 007°47'0 0.0
2014-Aug-24 06:30N 53°55' E 007°47'  

Dump ship's entire track history